Change the Weather History Date:

Thursday, February 7, 2013

  Actual Average Record
Temperature  
Mean Temperature 48 °F -  
Max Temperature 59 °F 42 °F 64 °F (1986)
Min Temperature 36 °F 23 °F -6 °F (1984)
Degree Days  
Heating Degree Days 18    
Moisture  
Dew Point 37 °F    
Average Humidity 66    
Maximum Humidity 93    
Minimum Humidity 37    
Precipitation  
Precipitation 0.00 in - - ()
Sea Level Pressure  
Sea Level Pressure 30.06 in    
Wind  
Wind Speed 3 mph (NNW)    
Max Wind Speed 13 mph    
Max Gust Speed -    
Visibility 10 miles    
Events Rain    
Averages and records for this station are not official NWS values.
T = Trace of Precipitation, MM = Missing Value Source: NWS Daily Summary

Daily Weather History Graph

Daily Weather History Graph

Search for Another Location

Airport or City:

Trip Planner

Search our weather history database for the weather conditions in past years. The results will help you decide how hot, cold, wet, or windy it might be!

Date:

Astronomy

Feb. 07, 2013 Rise Set
Actual Time 6:36 AM CST 5:11 PM CST
Civil Twilight 6:09 AM CST 5:38 PM CST
Nautical Twilight 5:38 AM CST 6:09 PM CST
Astronomical Twilight 5:08 AM CST 6:39 PM CST
Moon 4:12 AM CST (2/7) 2:37 PM CST (2/7)
Length of Visible Light 11h 29m
Length of Day
10h 35m
Waning Crescent, 9% of the Moon is Illuminated
Feb 7
Waning Crescent
Feb 10
New
Feb 17
First Quarter
Feb 25
Full
Mar 4
Last Quarter

Hourly Weather History & Observations

Time (CST) Temp. Windchill Dew Point Humidity Pressure Visibility Wind Dir Wind Speed Gust Speed Precip Events Conditions
12:56 AM 36.9 °F - 31.1 °F 80% 30.17 in 10.0 mi Calm Calm - N/A   Clear
1:56 AM 36.0 °F - 32.9 °F 89% 30.18 in 8.0 mi Calm Calm - N/A   Clear
2:56 AM 37.9 °F - 32.9 °F 82% 30.17 in 10.0 mi Calm Calm - N/A   Clear
3:56 AM 36.9 °F - 34.0 °F 89% 30.17 in 10.0 mi Calm Calm - N/A   Clear
4:56 AM 36.9 °F - 32.9 °F 86% 30.16 in 10.0 mi Calm Calm - N/A   Clear
6:56 AM 38.8 °F - 31.1 °F 74% 30.16 in 10.0 mi Calm Calm - N/A   Clear
7:56 AM 43.0 °F 39.5 °F 31.1 °F 63% 30.14 in 10.0 mi NNE 5.8 mph - N/A   Clear
8:56 AM 48.9 °F - 31.1 °F 50% 30.14 in 10.0 mi Calm Calm - N/A   Clear
9:56 AM 52.9 °F - 30.0 °F 42% 30.13 in 10.0 mi NNW 6.9 mph - N/A   Clear
10:56 AM 54.9 °F - 30.0 °F 39% 30.11 in 10.0 mi West 3.5 mph - N/A   Partly Cloudy
11:56 AM 55.9 °F - 31.1 °F 39% 30.08 in 10.0 mi Calm Calm - N/A   Mostly Cloudy
12:56 PM 57.9 °F - 32.0 °F 37% 30.04 in 10.0 mi Calm Calm - N/A   Clear
1:56 PM 59.0 °F - 32.9 °F 37% 30.01 in 10.0 mi Calm Calm - N/A   Partly Cloudy
2:56 PM 59.9 °F - 34.9 °F 39% 30.00 in 10.0 mi North 12.7 mph - N/A   Partly Cloudy
3:56 PM 59.0 °F - 34.9 °F 40% 29.99 in 10.0 mi NNW 9.2 mph - N/A   Clear
4:56 PM 56.8 °F - 37.9 °F 49% 29.99 in 10.0 mi NNE 8.1 mph - N/A   Overcast
5:56 PM 55.9 °F - 39.9 °F 55% 29.99 in 10.0 mi NNW 10.4 mph - N/A   Overcast
6:56 PM 52.9 °F - 43.9 °F 71% 30.00 in 10.0 mi North 9.2 mph - 0.00 in Rain Light Rain
7:56 PM 50.9 °F - 45.0 °F 80% 29.99 in 10.0 mi NNW 6.9 mph - 0.00 in   Overcast
8:56 PM 50.0 °F - 45.9 °F 86% 29.99 in 10.0 mi North 8.1 mph - 0.00 in   Overcast
9:56 PM 48.9 °F - 45.9 °F 89% 29.97 in 10.0 mi NNW 6.9 mph - N/A   Overcast
10:07 PM 48.2 °F - 46.4 °F 93% 29.95 in 10.0 mi North 4.6 mph - N/A   Overcast
10:56 PM 47.8 °F - 45.0 °F 90% 29.95 in 10.0 mi NNW 6.9 mph - N/A   Overcast
11:56 PM 46.9 °F - 45.0 °F 93% 29.94 in 10.0 mi North 4.6 mph - N/A   Overcast